Waukegan, IL

5:03 AM CST on January 19, 2017 (GMT -0600)
Waukegan Regional

Weather History for KUGN - January, 2013

Change the Weather History Date:

Friday, January 25, 2013

  Actual Average Record
Temperature  
Mean Temperature 21 °F -  
Max Temperature 25 °F 30 °F 49 °F (2002)
Min Temperature 17 °F 15 °F -4 °F (2008)
Degree Days  
Heating Degree Days 44 43  
Month to date heating degree days 1028 1048  
Since 1 July heating degree days 3407 3597  
Cooling Degree Days 0 0  
Month to date cooling degree days 0 0  
Year to date cooling degree days 0 0  
Moisture  
Dew Point 13 °F    
Average Humidity 69    
Maximum Humidity 88    
Minimum Humidity 49    
Precipitation  
Precipitation 0.04 in 0.05 in 0.09 in (2016)
Month to date precipitation 0.89 1.09  
Year to date precipitation 0.89 1.09  
Sea Level Pressure  
Sea Level Pressure 30.12 in    
Wind  
Wind Speed 8 mph (SSW)    
Max Wind Speed 18 mph    
Max Gust Speed 23 mph    
Visibility 6 miles    
Events Snow    
T = Trace of Precipitation, MM = Missing Value Source: NWS Daily Summary

Daily Weather History Graph

Daily Weather History Graph

Search for Another Location

Airport or City:

Trip Planner

Search our weather history database for the weather conditions in past years. The results will help you decide how hot, cold, wet, or windy it might be!

Date:

Astronomy

Jan. 25, 2013 Rise Set
Actual Time 7:11 AM CST 4:56 PM CST
Civil Twilight 6:41 AM CST 5:27 PM CST
Nautical Twilight 6:07 AM CST 6:01 PM CST
Astronomical Twilight 5:33 AM CST 6:34 PM CST
Moon 3:53 PM CST (1/25) 5:51 AM CST (1/25)
Length of Visible Light 10h 45m
Length of Day
9h 45m
Waxing Gibbous, 98% of the Moon is Illuminated
Jan 25
Waxing Gibbous
Jan 26
Full
Feb 3
Last Quarter
Feb 10
New
Feb 17
First Quarter

Hourly Weather History & Observations

Time (CST) Temp. Windchill Dew Point Humidity Pressure Visibility Wind Dir Wind Speed Gust Speed Precip Events Conditions
12:52 AM 19.9 °F 10.1 °F 6.1 °F 55% 30.38 in 10.0 mi South 8.1 mph - N/A   Overcast
1:52 AM 19.9 °F 8.6 °F 5.0 °F 52% 30.35 in 10.0 mi South 10.4 mph - N/A   Overcast
2:52 AM 19.9 °F 8.6 °F 5.0 °F 52% 30.31 in 10.0 mi South 10.4 mph - N/A   Overcast
3:52 AM 19.9 °F 7.9 °F 6.1 °F 55% 30.25 in 10.0 mi South 11.5 mph - N/A   Overcast
4:39 AM 19.4 °F 6.6 °F 8.6 °F 63% 30.17 in 2.0 mi SSE 12.7 mph - 0.00 in Snow Light Snow
4:52 AM 18.0 °F 6.1 °F 12.0 °F 78% 30.23 in 1.2 mi SSE 10.4 mph - 0.00 in Snow Light Snow
5:02 AM 17.6 °F 7.3 °F 12.2 °F 79% 30.17 in 1.0 mi South 8.1 mph - 0.00 in Snow Light Snow
5:52 AM 17.1 °F 7.6 °F 14.0 °F 88% 30.21 in 1.0 mi South 6.9 mph - 0.01 in Snow Light Snow
6:12 AM 17.6 °F 8.2 °F 14.0 °F 86% 30.14 in 1.2 mi SSE 6.9 mph - 0.00 in Snow Light Snow
6:52 AM 17.1 °F 8.7 °F 14.0 °F 88% 30.19 in 1.0 mi South 5.8 mph - 0.02 in Snow Light Snow
7:01 AM 17.6 °F 7.3 °F 14.0 °F 86% 30.11 in 1.2 mi SSE 8.1 mph - 0.00 in Snow Light Snow
7:13 AM 17.6 °F 8.2 °F 14.0 °F 86% 30.12 in 2.5 mi South 6.9 mph - 0.00 in Snow Light Snow
7:17 AM 17.6 °F 9.3 °F 14.0 °F 86% 30.11 in 3.0 mi South 5.8 mph - 0.00 in Snow Light Snow
7:50 AM 17.6 °F 5.7 °F 14.0 °F 86% 30.09 in 1.2 mi South 10.4 mph - 0.00 in Snow Light Snow
7:52 AM 18.0 °F 6.9 °F 14.0 °F 84% 30.15 in 1.2 mi South 9.2 mph - 0.00 in Snow Light Snow
8:07 AM 17.6 °F 6.4 °F 14.0 °F 86% 30.09 in 2.5 mi South 9.2 mph - 0.00 in Snow Light Snow
8:48 AM 19.4 °F 9.5 °F 15.8 °F 86% 30.08 in 6.0 mi SSW 8.1 mph - 0.00 in   Overcast
8:52 AM 19.0 °F 7.5 °F 14.0 °F 81% 30.14 in 7.0 mi SSW 10.4 mph - 0.00 in   Overcast
9:52 AM 19.9 °F 6.2 °F 14.0 °F 78% 30.13 in 8.0 mi SW 15.0 mph - N/A   Overcast
10:52 AM 21.0 °F 6.6 °F 15.1 °F 78% 30.09 in 9.0 mi SW 17.3 mph 23.0 mph 0.01 in   Overcast
11:00 AM 21.2 °F 7.8 °F 15.8 °F 80% 30.02 in 10.0 mi SSW 15.0 mph 23.0 mph N/A   Overcast
11:52 AM 21.9 °F 12.5 °F 15.1 °F 75% 30.05 in 10.0 mi SW 8.1 mph 18.4 mph N/A   Overcast
12:52 PM 23.0 °F 13.1 °F 15.1 °F 72% 30.01 in 10.0 mi SW 9.2 mph 18.4 mph N/A   Overcast
1:52 PM 24.1 °F 14.4 °F 16.0 °F 71% 30.01 in 7.0 mi SW 9.2 mph 16.1 mph N/A   Overcast
2:52 PM 24.1 °F 16.0 °F 16.0 °F 71% 30.02 in 3.0 mi WSW 6.9 mph - 0.00 in Snow Light Snow
3:03 PM 24.8 °F 16.1 °F 17.6 °F 74% 29.96 in 2.0 mi SW 8.1 mph - 0.00 in Snow Light Snow
3:52 PM 24.1 °F 18.2 °F 18.0 °F 77% 30.02 in 3.0 mi SW 4.6 mph - 0.00 in Snow Light Snow
3:59 PM 24.8 °F 16.1 °F 17.6 °F 74% 29.96 in 2.0 mi SW 8.1 mph - 0.00 in Snow Light Snow
4:52 PM 23.0 °F - 19.0 °F 85% 30.02 in 2.5 mi Calm Calm - 0.00 in Snow Light Snow
5:52 PM 23.0 °F - 19.0 °F 85% 30.05 in 5.0 mi Calm Calm - 0.00 in   Overcast
6:52 PM 24.1 °F 13.1 °F 17.1 °F 75% 30.09 in 6.0 mi WNW 11.5 mph 20.7 mph 0.00 in Snow Light Snow
7:52 PM 23.0 °F 15.8 °F 12.0 °F 63% 30.11 in 10.0 mi WNW 5.8 mph 19.6 mph 0.00 in   Overcast
8:52 PM 21.9 °F 15.7 °F 10.0 °F 60% 30.11 in 10.0 mi WNW 4.6 mph - N/A   Clear
9:52 PM 21.9 °F 14.5 °F 10.0 °F 60% 30.14 in 10.0 mi WNW 5.8 mph - N/A   Clear
10:52 PM 19.9 °F 10.1 °F 9.0 °F 62% 30.17 in 10.0 mi WNW 8.1 mph - N/A   Clear
11:52 PM 19.9 °F 12.1 °F 10.0 °F 65% 30.21 in 9.0 mi WNW 5.8 mph - N/A   Clear